[[{"header":{"parameterUnit":"m.s-1","parameterCategory":1,"la1":30.2991,"la2":30.254,"lo1":-89.0895,"lo2":-89.0444,"dy":0.0017,"dx":0.0017,"nx":28,"ny":28,"refTime":"2024-09-02T21:00:00:Z","depth":0,"parameterNumber":2,"parameterNumberName":"U-component_of_WINDS"},"data":[0,0,0,0,0,0,0,0,0,0,0,0,0,0,0,0,0,0,0,0,0,0,0,0,0,0,0,0,0,0,0,0,0,0,0,0,0,0,0,0,0,0,0,0,0,0,0,0,0,0,0,0,0,0,0,0,0,0,-0.6025,-0.6024,0,-0.5953,-0.5952,-0.5952,-0.5938,-0.5938,-0.5939,-0.5939,-0.5866,-0.5863,-0.5861,0,0,0,0,0,0,0,0,0,0,0,0,0,-0.615,-0.6148,-0.6025,-0.6024,-0.6023,-0.5953,-0.5952,-0.5951,-0.5938,-0.5938,-0.5939,-0.594,-0.5866,-0.5863,-0.586,0,0,0,0,0,0,0,0,0,0,0,0,0,-0.6089,-0.6147,-0.6025,-0.6008,-0.6005,-0.5953,-0.5952,-0.5951,-0.5937,-0.5938,-0.5939,-0.594,-0.5867,-0.5864,-0.586,-0.582,0,0,-0.5849,-0.5847,0,0,0,0,0,0,0,0,-0.6092,-0.6084,-0.6011,-0.6009,-0.6006,-0.5955,-0.5969,-0.5907,-0.5937,-0.5963,-0.5939,-0.594,-0.5895,-0.5889,-0.5873,-0.5817,-0.5813,-0.5848,-0.5846,-0.5844,-0.5843,0,0,0,0,0,0,0,-0.6097,-0.6087,-0.5996,-0.601,-0.6007,-0.6004,-0.5996,-0.5958,-0.5925,-0.5961,-0.596,-0.5952,-0.5893,-0.5877,-0.5872,-0.5812,-0.5848,-0.5845,-0.5843,-0.5841,-0.5721,-0.5721,0,0,0,0,0,0,-0.6104,-0.6091,-0.5999,-0.5994,-0.6052,-0.6001,-0.5992,-0.5971,-0.5925,-0.5919,-0.5951,-0.5951,-0.5883,-0.5876,-0.5869,-0.582,-0.5844,-0.5841,-0.5839,-0.5722,-0.5721,-0.572,0,0,0,0,0,0,-0.6107,-0.6096,-0.6002,-0.6042,-0.603,-0.5998,-0.5974,-0.5969,-0.5952,-0.5918,-0.5912,-0.594,-0.5883,-0.5874,-0.5833,-0.5818,-0.5839,-0.5836,-0.5724,-0.5722,-0.5721,-0.5722,0,0,0,0,0,0,-0.611,-0.6097,-0.6081,-0.6042,-0.6028,-0.5966,-0.5973,-0.5967,-0.5946,-0.5946,-0.5906,-0.59,-0.5883,-0.5838,-0.5829,-0.5813,-0.5833,-0.5725,-0.5723,-0.5721,-0.5724,-0.5721,-0.5719,0,0,0,0,0,-0.6115,-0.6084,-0.608,-0.6069,-0.6007,-0.5965,-0.5957,-0.5938,-0.5945,-0.5929,-0.5907,-0.5902,-0.5821,-0.5834,-0.5824,-0.5806,-0.5726,-0.5723,-0.5721,-0.5725,-0.5722,-0.5719,0,0,0,0,0,0,-0.6121,-0.6078,-0.6074,-0.6029,-0.6001,-0.5963,-0.5942,-0.5936,-0.5905,-0.5906,-0.5884,-0.5875,-0.5836,-0.5817,-0.5832,-0.5766,-0.5774,-0.5769,-0.578,-0.5777,-0.5775,-0.578,-0.583,0,0,0,0,0,-0.6117,-0.6086,-0.6051,-0.6015,-0.6001,-0.5974,-0.5955,-0.5943,-0.5913,-0.5901,-0.5876,-0.5847,-0.5816,-0.5795,-0.5764,-0.5721,-0.5713,-0.5704,-0.5702,-0.57,-0.5697,-0.5674,-0.567,-0.5713,-0.5713,-0.5713,0,0,-0.6108,-0.6082,-0.6063,-0.6015,-0.5992,-0.5962,-0.5964,-0.5931,-0.5908,-0.5896,-0.5856,-0.5837,-0.5803,-0.5762,-0.5742,-0.5745,-0.5683,-0.5698,-0.5697,-0.5694,-0.5672,-0.5668,-0.5664,-0.5712,-0.5712,-0.5712,0,0,-0.6078,-0.6054,-0.6022,-0.5999,-0.5965,-0.5947,-0.594,-0.5903,-0.589,-0.585,-0.5841,-0.5814,-0.5759,-0.5736,-0.5717,-0.5681,-0.5675,-0.5671,-0.566,-0.5638,-0.5635,-0.5632,-0.562,-0.5616,-0.5668,-0.5668,-0.5668,0,-0.6071,-0.6025,-0.6006,-0.5974,-0.5954,-0.5943,-0.5911,-0.589,-0.5847,-0.5833,-0.5837,-0.577,-0.5746,-0.57,-0.5691,-0.5676,-0.5668,-0.5675,-0.5637,-0.5634,-0.563,-0.5619,-0.5614,-0.5668,-0.5668,-0.5668,-0.5668,0,-0.6019,-0.5987,-0.5966,-0.5926,-0.5903,-0.5871,-0.5849,-0.5828,-0.5819,-0.5802,-0.5762,-0.5734,-0.5697,-0.5685,-0.5676,-0.5638,-0.5641,-0.5641,-0.5648,-0.5627,-0.5615,-0.561,-0.5667,-0.5667,-0.5668,-0.5668,0,0,-0.5988,-0.594,-0.5933,-0.5915,-0.5877,-0.5852,-0.5821,-0.5786,-0.577,-0.5741,-0.5715,-0.567,-0.5671,-0.5649,-0.5637,-0.5618,-0.5593,-0.5621,-0.562,-0.5617,-0.5551,-0.5552,-0.5547,-0.5589,-0.5588,-0.5587,-0.5555,0,-0.5954,-0.5897,-0.5881,-0.5833,-0.5804,-0.5794,-0.5767,-0.5741,-0.5725,-0.5698,-0.568,-0.5649,-0.5652,-0.5639,-0.562,-0.56,-0.5579,-0.5602,-0.5565,-0.5564,-0.5574,-0.5541,-0.554,-0.5511,-0.555,-0.5549,-0.5548,0,-0.5905,-0.5877,-0.5826,-0.5794,-0.5782,-0.5757,-0.5725,-0.57,-0.5671,-0.5661,-0.5638,-0.5628,-0.5596,-0.5606,-0.5562,-0.5577,-0.5562,-0.555,-0.5548,-0.5544,-0.5555,-0.5536,-0.55,-0.5496,-0.5541,-0.5542,-0.5542,0,-0.5889,-0.5838,-0.5802,-0.5787,-0.5748,-0.5732,-0.5715,-0.5687,-0.5668,-0.564,-0.5628,-0.5597,-0.5579,-0.5556,-0.5538,-0.5546,-0.5496,-0.5504,-0.5487,-0.5488,-0.5477,-0.5478,-0.5439,-0.5466,-0.5466,-0.5466,-0.5466,0,-0.5851,-0.5821,-0.5794,-0.5772,-0.5739,-0.5721,-0.5689,-0.5671,-0.5647,-0.5622,-0.5611,-0.5588,-0.5566,-0.554,-0.5526,-0.5493,-0.5485,-0.5476,-0.5473,-0.5477,-0.5479,-0.5467,-0.5468,-0.5465,-0.5465,-0.5466,-0.5466,0,-0.5827,-0.5808,-0.5768,-0.5736,-0.5727,-0.5704,-0.5676,-0.5655,-0.5639,-0.5607,-0.5599,-0.5574,-0.5543,-0.5523,-0.5484,-0.5475,-0.5438,-0.5435,-0.5448,-0.5447,-0.5432,-0.5434,-0.5383,-0.5377,-0.5408,-0.5408,-0.5408,0,-0.5805,-0.5782,-0.5747,-0.573,-0.5714,-0.5686,-0.5667,-0.5649,-0.5629,-0.5596,-0.5579,-0.5548,-0.5522,-0.5474,-0.5452,-0.5422,-0.5419,-0.5404,-0.5414,-0.542,-0.542,-0.5422,-0.542,-0.5402,-0.5402,-0.5401,-0.5401,0,-0.5768,-0.576,-0.5733,-0.5703,-0.5681,-0.5656,-0.5632,-0.5618,-0.5597,-0.5576,-0.5544,-0.5524,-0.5485,-0.5455,-0.5424,-0.5407,-0.5401,-0.5398,-0.5393,-0.5397,-0.5406,-0.5402,-0.5444,-0.5399,-0.5399,-0.54,-0.54,-0.54,-0.5744,-0.5724,-0.5697,-0.5668,-0.5648,-0.5626,-0.5605,-0.5587,-0.5561,-0.5528,-0.5519,-0.5487,-0.5461,-0.5418,-0.5401,-0.5377,-0.5378,-0.5371,-0.5369,-0.5367,-0.5367,-0.541,-0.5371,-0.5371,-0.5371,-0.5371,-0.5371,0,-0.5707,-0.569,-0.5663,-0.563,-0.5608,-0.5605,-0.5578,-0.556,-0.5531,-0.5508,-0.5483,-0.5448,-0.5419,-0.5396,-0.5367,-0.5352,-0.5348,-0.5344,-0.5346,-0.5342,-0.5367,-0.5375,-0.5348,-0.5348,-0.5348,-0.5348,-0.5348,-0.5348,-0.5685,-0.5651,-0.5641,-0.5597,-0.558,-0.5549,-0.5535,-0.5515,-0.5496,-0.5458,-0.5434,-0.5419,-0.5396,-0.5366,-0.5339,-0.5333,-0.5323,-0.532,-0.5314,-0.5338,-0.534,-0.5342,-0.535,-0.5318,-0.5318,-0.5291,-0.5291,-0.5291]},{"header":{"parameterUnit":"m.s-1","parameterCategory":1,"la1":30.2991,"la2":30.254,"lo1":-89.0895,"lo2":-89.0444,"dy":0.0017,"dx":0.0017,"nx":28,"ny":28,"refTime":"2024-09-02T21:00:00:Z","depth":0,"parameterNumber":3,"parameterNumberName":"V-component_of_WINDS"},"data":[0,0,0,0,0,0,0,0,0,0,0,0,0,0,0,0,0,0,0,0,0,0,0,0,0,0,0,0,0,0,0,0,0,0,0,0,0,0,0,0,0,0,0,0,0,0,0,0,0,0,0,0,0,0,0,0,0,0,0.3641,0.3641,0,0.3649,0.3649,0.3649,0.3637,0.3636,0.3636,0.3636,0.3644,0.3645,0.3646,0,0,0,0,0,0,0,0,0,0,0,0,0,0.3612,0.3613,0.3641,0.3641,0.3641,0.3649,0.3649,0.3649,0.3637,0.3636,0.3636,0.3635,0.3644,0.3645,0.3646,0,0,0,0,0,0,0,0,0,0,0,0,0,0.3623,0.3613,0.3641,0.3636,0.3635,0.3649,0.3649,0.3649,0.3637,0.3636,0.3636,0.3635,0.3644,0.3645,0.3646,0.3665,0,0,0.3649,0.3649,0,0,0,0,0,0,0,0,0.3623,0.3624,0.3636,0.3636,0.3636,0.3641,0.3642,0.3655,0.3637,0.3636,0.3636,0.3635,0.3644,0.3645,0.3648,0.3665,0.3666,0.3649,0.3649,0.365,0.365,0,0,0,0,0,0,0,0.3622,0.3624,0.3644,0.3637,0.3636,0.3633,0.3633,0.3645,0.3644,0.3636,0.3636,0.3637,0.3644,0.3647,0.3648,0.3666,0.3649,0.365,0.365,0.365,0.3696,0.3697,0,0,0,0,0,0,0.3622,0.3623,0.3644,0.3644,0.3627,0.3634,0.3635,0.364,0.3644,0.3643,0.3637,0.3636,0.3646,0.3647,0.3648,0.3668,0.365,0.3651,0.3651,0.3696,0.3696,0.3697,0,0,0,0,0,0,0.3621,0.3624,0.3644,0.3634,0.3636,0.3635,0.3641,0.3641,0.3644,0.3644,0.3644,0.3641,0.3645,0.3647,0.366,0.3669,0.3651,0.3652,0.3695,0.3696,0.3697,0.3711,0,0,0,0,0,0,0.3621,0.3624,0.3631,0.3634,0.3636,0.3656,0.3642,0.3641,0.3646,0.3644,0.3648,0.3647,0.3645,0.3659,0.3661,0.367,0.3653,0.3694,0.3695,0.3696,0.371,0.3712,0.3714,0,0,0,0,0,0.362,0.3636,0.3632,0.3634,0.3646,0.3656,0.3658,0.3654,0.3647,0.3654,0.3653,0.3647,0.3668,0.366,0.3663,0.3672,0.3693,0.3695,0.3696,0.3708,0.3712,0.3714,0,0,0,0,0,0,0.3635,0.3636,0.3632,0.3649,0.3653,0.3654,0.3663,0.3658,0.3664,0.3662,0.3658,0.3659,0.3672,0.3674,0.3665,0.3689,0.3679,0.3681,0.3688,0.3691,0.3693,0.3692,0.3653,0,0,0,0,0,0.364,0.3649,0.3649,0.3665,0.3666,0.3665,0.3669,0.3666,0.3669,0.3671,0.3672,0.3675,0.3682,0.3686,0.3693,0.371,0.3709,0.3717,0.372,0.3722,0.3723,0.373,0.3733,0.3702,0.3702,0.3702,0,0,0.3652,0.3653,0.3659,0.3668,0.367,0.3678,0.3666,0.3676,0.3681,0.3672,0.3684,0.3685,0.3688,0.3703,0.3709,0.3704,0.3731,0.3724,0.3725,0.3725,0.3731,0.3734,0.3737,0.3703,0.3702,0.3702,0,0,0.3676,0.3679,0.369,0.3693,0.3696,0.3694,0.3697,0.3699,0.3699,0.3711,0.3703,0.371,0.3723,0.3724,0.3727,0.375,0.3743,0.3752,0.3764,0.3771,0.3773,0.3775,0.3781,0.3784,0.3754,0.3754,0.3754,0,0.3689,0.3701,0.3697,0.3707,0.371,0.3701,0.3712,0.3715,0.372,0.3722,0.3717,0.3731,0.3733,0.3746,0.3751,0.3755,0.3756,0.3751,0.3773,0.3775,0.3777,0.3783,0.3785,0.3755,0.3754,0.3754,0.3754,0,0.3716,0.3725,0.3734,0.3738,0.3742,0.3753,0.3749,0.3754,0.375,0.3749,0.376,0.3762,0.3767,0.3771,0.3768,0.3783,0.378,0.3774,0.3764,0.3781,0.3786,0.3788,0.3756,0.3755,0.3755,0.3755,0,0,0.3751,0.3751,0.3754,0.3755,0.3758,0.3764,0.3773,0.3778,0.3781,0.3785,0.3791,0.3801,0.3795,0.3798,0.3795,0.3801,0.3816,0.3794,0.3794,0.3796,0.3831,0.3834,0.3837,0.3812,0.3813,0.3813,0.383,0,0.3773,0.3788,0.3784,0.3799,0.3806,0.3797,0.3805,0.3807,0.3805,0.381,0.3809,0.3815,0.3808,0.3809,0.3815,0.3813,0.3823,0.3812,0.3817,0.3817,0.3815,0.384,0.3844,0.386,0.3832,0.3833,0.3833,0,0.3801,0.3804,0.382,0.3819,0.3821,0.3828,0.3831,0.3837,0.3838,0.3837,0.3839,0.3834,0.3842,0.3832,0.3842,0.3835,0.3837,0.3837,0.3837,0.3836,0.3825,0.3839,0.3866,0.3867,0.3837,0.3836,0.3836,0,0.3821,0.383,0.384,0.3841,0.3841,0.3846,0.3846,0.3846,0.3849,0.3852,0.3853,0.3857,0.3859,0.3862,0.3858,0.3852,0.3868,0.3858,0.3865,0.3865,0.3868,0.3868,0.3894,0.3872,0.3872,0.3872,0.3872,0,0.3845,0.3854,0.3848,0.3854,0.3864,0.3859,0.3869,0.3868,0.3868,0.3873,0.3867,0.3871,0.3866,0.387,0.3867,0.3875,0.3876,0.3875,0.3873,0.3874,0.3874,0.3875,0.3873,0.3873,0.3873,0.3873,0.3872,0,0.3869,0.3866,0.3875,0.3874,0.3874,0.3881,0.3879,0.3884,0.3882,0.3888,0.389,0.3886,0.389,0.3887,0.3891,0.3889,0.3899,0.3897,0.3898,0.3897,0.3904,0.3902,0.393,0.3933,0.391,0.391,0.3911,0,0.3884,0.389,0.3889,0.3892,0.3892,0.3897,0.3899,0.3894,0.3896,0.3897,0.3902,0.3905,0.3908,0.3915,0.3913,0.3916,0.3913,0.3922,0.3913,0.3913,0.3911,0.391,0.391,0.3923,0.3924,0.3924,0.3924,0,0.3909,0.3907,0.391,0.3913,0.3915,0.3917,0.3918,0.3921,0.3916,0.3919,0.3922,0.3924,0.3928,0.3931,0.3933,0.3933,0.3927,0.3927,0.3929,0.3929,0.3929,0.3927,0.3901,0.3926,0.3926,0.3926,0.3926,0.3926,0.3928,0.3932,0.3932,0.3935,0.3935,0.3936,0.394,0.3938,0.3941,0.3944,0.3941,0.3945,0.3945,0.3947,0.3947,0.395,0.3946,0.3948,0.3949,0.3949,0.3949,0.3929,0.395,0.395,0.395,0.395,0.395,0,0.3951,0.395,0.3953,0.3955,0.3957,0.3952,0.3952,0.3955,0.3958,0.3959,0.3961,0.3964,0.3967,0.3965,0.3967,0.3969,0.3967,0.397,0.3969,0.3969,0.3954,0.3951,0.3972,0.3972,0.3972,0.3972,0.3972,0.3972,0.3964,0.397,0.3968,0.3974,0.3973,0.3977,0.3978,0.3978,0.3978,0.3982,0.3984,0.3983,0.3981,0.3983,0.3985,0.3984,0.3984,0.3988,0.3986,0.3972,0.397,0.3968,0.3966,0.3989,0.3989,0.4001,0.4001,0.4001]}]]